User: anonymous   Login
Location: Adamstown South Public School
(32.9318°S, 151.7012°E)
Time: 17:25:55
(UTC+00:00)
Language:

Cosmos 494 Rocket - Orbit

View from above orbital plane
View from above orbital plane
View from above satellite
View from above satellite

Ground track
Ground track

The orbit data is extracted from the following two-line orbital elements,

1 06061U 72043B   21136.87721978  .00000045  00000-0  22374-4 0  9992
2 06061  74.0584  59.3903 0020350 193.9763 166.0832 14.40616457563930
Epoch (UTC): 16 May 2021 21:03:11
Eccentricity: 0.0020350
inclination: 74.0584°
perigee height: 742 km
apogee height: 771 km
right ascension of ascending node: 59.3903°
argument of perigee: 193.9763°
revolutions per day: 14.40616457
mean anomaly at epoch: 166.0832°
orbit number at epoch: 56393

The dashed part of the orbit path shows where the satellite is in the earth's shadow,  

DLR